#Datum;Uhrzeit;WR;Pac;DaySum;Status;WR;Pac;DaySum;Status;Pdc1;Udc;Temp;WR;Pac;DaySum;Status;Pdc1;Udc;Temp;WR;Pac;DaySum;Status;Pdc1;Udc;Temp;WR;Pac;DaySum;Status;Pdc1;Pdc2;Udc1;Udc2;Temp;WR;Pac;DaySum;Status;Pdc1;Pdc2;Udc1;Udc2;Temp;WR;Pac;DaySum;Status;Pdc1;Udc;Temp;WR;Pac;DaySum;Status;Pdc1;Udc;Temp;WR;Pac;DaySum;Status;Pdc1;Udc;Temp
22.02.18;23:55:00;1;299;15742;0;2;0;14419;0;0;0;0;3;0;9316;0;0;0;0;4;0;13123;0;0;0;0;5;0;30370;0;0;0;0;0;0;6;0;23111;0;0;0;0;0;0;7;0;18985;0;0;0;0;8;0;18837;0;0;0;0;9;0;10301;0;0;0;0
22.02.18;23:50:00;1;294;15717;0;2;0;14419;0;0;0;0;3;0;9316;0;0;0;0;4;0;13123;0;0;0;0;5;0;30370;0;0;0;0;0;0;6;0;23111;0;0;0;0;0;0;7;0;18985;0;0;0;0;8;0;18837;0;0;0;0;9;0;10301;0;0;0;0
22.02.18;23:45:00;1;277;15693;0;2;0;14419;0;0;0;0;3;0;9316;0;0;0;0;4;0;13123;0;0;0;0;5;0;30370;0;0;0;0;0;0;6;0;23111;0;0;0;0;0;0;7;0;18985;0;0;0;0;8;0;18837;0;0;0;0;9;0;10301;0;0;0;0
22.02.18;23:40:00;1;277;15670;0;2;0;14419;0;0;0;0;3;0;9316;0;0;0;0;4;0;13123;0;0;0;0;5;0;30370;0;0;0;0;0;0;6;0;23111;0;0;0;0;0;0;7;0;18985;0;0;0;0;8;0;18837;0;0;0;0;9;0;10301;0;0;0;0
22.02.18;23:35:00;1;255;15646;0;2;0;14419;0;0;0;0;3;0;9316;0;0;0;0;4;0;13123;0;0;0;0;5;0;30370;0;0;0;0;0;0;6;0;23111;0;0;0;0;0;0;7;0;18985;0;0;0;0;8;0;18837;0;0;0;0;9;0;10301;0;0;0;0
22.02.18;23:30:00;1;415;15625;0;2;0;14419;0;0;0;0;3;0;9316;0;0;0;0;4;0;13123;0;0;0;0;5;0;30370;0;0;0;0;0;0;6;0;23111;0;0;0;0;0;0;7;0;18985;0;0;0;0;8;0;18837;0;0;0;0;9;0;10301;0;0;0;0
22.02.18;23:25:00;1;235;15576;0;2;0;14419;0;0;0;0;3;0;9316;0;0;0;0;4;0;13123;0;0;0;0;5;0;30370;0;0;0;0;0;0;6;0;23111;0;0;0;0;0;0;7;0;18985;0;0;0;0;8;0;18837;0;0;0;0;9;0;10301;0;0;0;0
22.02.18;23:20:00;1;234;15557;0;2;0;14419;0;0;0;0;3;0;9316;0;0;0;0;4;0;13123;0;0;0;0;5;0;30370;0;0;0;0;0;0;6;0;23111;0;0;0;0;0;0;7;0;18985;0;0;0;0;8;0;18837;0;0;0;0;9;0;10301;0;0;0;0
22.02.18;23:15:00;1;235;15537;0;2;0;14419;0;0;0;0;3;0;9316;0;0;0;0;4;0;13123;0;0;0;0;5;0;30370;0;0;0;0;0;0;6;0;23111;0;0;0;0;0;0;7;0;18985;0;0;0;0;8;0;18837;0;0;0;0;9;0;10301;0;0;0;0
22.02.18;23:10:00;1;235;15517;0;2;0;14419;0;0;0;0;3;0;9316;0;0;0;0;4;0;13123;0;0;0;0;5;0;30370;0;0;0;0;0;0;6;0;23111;0;0;0;0;0;0;7;0;18985;0;0;0;0;8;0;18837;0;0;0;0;9;0;10301;0;0;0;0
22.02.18;23:05:00;1;235;15498;0;2;0;14419;0;0;0;0;3;0;9316;0;0;0;0;4;0;13123;0;0;0;0;5;0;30370;0;0;0;0;0;0;6;0;23111;0;0;0;0;0;0;7;0;18985;0;0;0;0;8;0;18837;0;0;0;0;9;0;10301;0;0;0;0
22.02.18;23:00:00;1;274;15478;0;2;0;14419;0;0;0;0;3;0;9316;0;0;0;0;4;0;13123;0;0;0;0;5;0;30370;0;0;0;0;0;0;6;0;23111;0;0;0;0;0;0;7;0;18985;0;0;0;0;8;0;18837;0;0;0;0;9;0;10301;0;0;0;0
22.02.18;22:55:00;1;1216;15455;0;2;0;14419;0;0;0;0;3;0;9316;0;0;0;0;4;0;13123;0;0;0;0;5;0;30370;2;0;0;0;0;0;6;0;23111;2;0;0;0;0;0;7;0;18985;0;0;0;0;8;0;18837;0;0;0;0;9;0;10301;0;0;0;0
22.02.18;22:50:00;1;434;15392;0;2;0;14419;0;0;0;0;3;0;9316;0;0;0;0;4;0;13123;0;0;0;0;5;0;30370;2;0;0;0;0;0;6;0;23111;2;0;0;0;0;0;7;0;18985;0;0;0;0;8;0;18837;0;0;0;0;9;0;10301;0;0;0;0
22.02.18;22:45:00;1;425;15356;0;2;0;14419;0;0;0;0;3;0;9316;0;0;0;0;4;0;13123;0;0;0;0;5;0;30370;2;0;0;0;0;0;6;0;23111;2;0;0;0;0;0;7;0;18985;0;0;0;0;8;0;18837;0;0;0;0;9;0;10301;0;0;0;0
22.02.18;22:40:00;1;414;15320;0;2;0;14419;0;0;0;0;3;0;9316;0;0;0;0;4;0;13123;0;0;0;0;5;0;30370;2;0;0;0;0;0;6;0;23111;2;0;0;0;0;0;7;0;18985;0;0;0;0;8;0;18837;0;0;0;0;9;0;10301;0;0;0;0
22.02.18;22:35:00;1;386;15286;0;2;0;14419;0;0;0;0;3;0;9316;0;0;0;0;4;0;13123;0;0;0;0;5;0;30370;2;0;0;0;0;0;6;0;23111;2;0;0;0;0;0;7;0;18985;0;0;0;0;8;0;18837;0;0;0;0;9;0;10301;0;0;0;0
22.02.18;22:30:00;1;384;15254;0;2;0;14419;0;0;0;0;3;0;9316;0;0;0;0;4;0;13123;0;0;0;0;5;0;30370;2;0;0;0;0;0;6;0;23111;2;0;0;0;0;0;7;0;18985;0;0;0;0;8;0;18837;0;0;0;0;9;0;10301;0;0;0;0
22.02.18;22:25:00;1;591;15221;0;2;0;14419;0;0;0;0;3;0;9316;0;0;0;0;4;0;13123;0;0;0;0;5;0;30370;2;0;0;0;0;0;6;0;23111;2;0;0;0;0;0;7;0;18985;0;0;0;0;8;0;18837;0;0;0;0;9;0;10301;0;0;0;0
22.02.18;22:20:00;1;386;15161;0;2;0;14419;0;0;0;0;3;0;9316;0;0;0;0;4;0;13123;0;0;0;0;5;0;30370;2;0;0;0;0;0;6;0;23111;2;0;0;0;0;0;7;0;18985;0;0;0;0;8;0;18837;0;0;0;0;9;0;10301;0;0;0;0
22.02.18;22:15:00;1;440;15128;0;2;0;14419;0;0;0;0;3;0;9316;0;0;0;0;4;0;13123;0;0;0;0;5;0;30370;2;0;0;0;0;0;6;0;23111;2;0;0;0;0;0;7;0;18985;0;0;0;0;8;0;18837;0;0;0;0;9;0;10301;0;0;0;0
22.02.18;22:10:00;1;449;15092;0;2;0;14419;0;0;0;0;3;0;9316;0;0;0;0;4;0;13123;0;0;0;0;5;0;30370;2;0;0;0;0;0;6;0;23111;2;0;0;0;0;0;7;0;18985;0;0;0;0;8;0;18837;0;0;0;0;9;0;10301;0;0;0;0
22.02.18;22:05:00;1;446;15054;0;2;0;14419;0;0;0;0;3;0;9316;0;0;0;0;4;0;13123;0;0;0;0;5;0;30370;2;0;0;0;0;0;6;0;23111;2;0;0;0;0;0;7;0;18985;0;0;0;0;8;0;18837;0;0;0;0;9;0;10301;0;0;0;0
22.02.18;22:00:00;1;449;15017;0;2;0;14419;0;0;0;0;3;0;9316;0;0;0;0;4;0;13123;0;0;0;0;5;0;30370;2;0;0;0;0;0;6;0;23111;2;0;0;0;0;0;7;0;18985;0;0;0;0;8;0;18837;0;0;0;0;9;0;10301;0;0;0;0
22.02.18;21:55:00;1;513;14977;0;2;0;14419;0;0;0;0;3;0;9316;0;0;0;0;4;0;13123;0;0;0;0;5;0;30370;2;0;0;0;0;0;6;0;23111;2;0;0;0;0;0;7;0;18985;0;0;0;0;8;0;18837;0;0;0;0;9;0;10301;0;0;0;0
22.02.18;21:50:00;1;862;14934;0;2;0;14419;0;0;0;0;3;0;9316;0;0;0;0;4;0;13123;0;0;0;0;5;0;30370;2;0;0;0;0;0;6;0;23111;2;0;0;0;0;0;7;0;18985;0;0;0;0;8;0;18837;0;0;0;0;9;0;10301;0;0;0;0
22.02.18;21:45:00;1;530;14862;0;2;0;14419;0;0;0;0;3;0;9316;0;0;0;0;4;0;13123;0;0;0;0;5;0;30370;2;0;0;0;0;0;6;0;23111;2;0;0;0;0;0;7;0;18985;0;0;0;0;8;0;18837;0;0;0;0;9;0;10301;0;0;0;0
22.02.18;21:40:00;1;483;14819;0;2;0;14419;0;0;0;0;3;0;9316;0;0;0;0;4;0;13123;0;0;0;0;5;0;30370;2;0;0;0;0;0;6;0;23111;2;0;0;0;0;0;7;0;18985;0;0;0;0;8;0;18837;0;0;0;0;9;0;10301;0;0;0;0
22.02.18;21:35:00;1;417;14779;0;2;0;14419;0;0;0;0;3;0;9316;0;0;0;0;4;0;13123;0;0;0;0;5;0;30370;2;0;0;0;0;0;6;0;23111;2;0;0;0;0;0;7;0;18985;0;0;0;0;8;0;18837;0;0;0;0;9;0;10301;0;0;0;0
22.02.18;21:30:00;1;434;14742;0;2;0;14419;0;0;0;0;3;0;9316;0;0;0;0;4;0;13123;0;0;0;0;5;0;30370;2;0;0;0;0;0;6;0;23111;2;0;0;0;0;0;7;0;18985;0;0;0;0;8;0;18837;0;0;0;0;9;0;10301;0;0;0;0
22.02.18;21:25:00;1;412;14707;0;2;0;14419;0;0;0;0;3;0;9316;0;0;0;0;4;0;13123;0;0;0;0;5;0;30370;2;0;0;0;0;0;6;0;23111;2;0;0;0;0;0;7;0;18985;0;0;0;0;8;0;18837;0;0;0;0;9;0;10301;0;0;0;0
22.02.18;21:20:00;1;404;14673;0;2;0;14419;0;0;0;0;3;0;9316;0;0;0;0;4;0;13123;0;0;0;0;5;0;30370;2;0;0;0;0;0;6;0;23111;2;0;0;0;0;0;7;0;18985;0;0;0;0;8;0;18837;0;0;0;0;9;0;10301;0;0;0;0
22.02.18;21:15:00;1;688;14629;0;2;0;14419;0;0;0;0;3;0;9316;0;0;0;0;4;0;13123;0;0;0;0;5;0;30370;2;0;0;0;0;0;6;0;23111;2;0;0;0;0;0;7;0;18985;0;0;0;0;8;0;18837;0;0;0;0;9;0;10301;0;0;0;0
22.02.18;21:10:00;1;2280;14548;0;2;0;14419;0;0;0;0;3;0;9316;0;0;0;0;4;0;13123;0;0;0;0;5;0;30370;2;0;0;0;0;0;6;0;23111;2;0;0;0;0;0;7;0;18985;0;0;0;0;8;0;18837;0;0;0;0;9;0;10301;0;0;0;0
22.02.18;21:05:00;1;351;14385;0;2;0;14419;0;0;0;0;3;0;9316;0;0;0;0;4;0;13123;0;0;0;0;5;0;30370;2;0;0;0;0;0;6;0;23111;2;0;0;0;0;0;7;0;18985;0;0;0;0;8;0;18837;0;0;0;0;9;0;10301;0;0;0;0
22.02.18;21:00:00;1;651;14353;0;2;0;14419;0;0;0;0;3;0;9316;0;0;0;0;4;0;13123;0;0;0;0;5;0;30370;2;0;0;0;0;0;6;0;23111;2;0;0;0;0;0;7;0;18985;0;0;0;0;8;0;18837;0;0;0;0;9;0;10301;0;0;0;0
22.02.18;20:55:00;1;268;14302;0;2;0;14419;0;0;0;0;3;0;9316;0;0;0;0;4;0;13123;0;0;0;0;5;0;30370;2;0;0;0;0;0;6;0;23111;2;0;0;0;0;0;7;0;18985;0;0;0;0;8;0;18837;0;0;0;0;9;0;10301;0;0;0;0
22.02.18;20:50:00;1;728;14279;0;2;0;14419;0;0;0;0;3;0;9316;0;0;0;0;4;0;13123;0;0;0;0;5;0;30370;2;0;0;0;0;0;6;0;23111;2;0;0;0;0;0;7;0;18985;0;0;0;0;8;0;18837;0;0;0;0;9;0;10301;0;0;0;0
22.02.18;20:45:00;1;284;14231;0;2;0;14419;0;0;0;0;3;0;9316;0;0;0;0;4;0;13123;0;0;0;0;5;0;30370;2;0;0;0;0;0;6;0;23111;2;0;0;0;0;0;7;0;18985;0;0;0;0;8;0;18837;0;0;0;0;9;0;10301;0;0;0;0
22.02.18;20:40:00;1;817;14206;0;2;0;14419;0;0;0;0;3;0;9316;0;0;0;0;4;0;13123;0;0;0;0;5;0;30370;2;0;0;0;0;0;6;0;23111;2;0;0;0;0;0;7;0;18985;0;0;0;0;8;0;18837;0;0;0;0;9;0;10301;0;0;0;0
22.02.18;20:35:00;1;413;14157;0;2;0;14419;0;0;0;0;3;0;9316;0;0;0;0;4;0;13123;0;0;0;0;5;0;30370;2;0;0;0;0;0;6;0;23111;2;0;0;0;0;0;7;0;18985;0;0;0;0;8;0;18837;0;0;0;0;9;0;10301;0;0;0;0
22.02.18;20:30:00;1;215;14111;0;2;0;14419;0;0;0;0;3;0;9316;0;0;0;0;4;0;13123;0;0;0;0;5;0;30370;2;0;0;0;0;0;6;0;23111;2;0;0;0;0;0;7;0;18985;0;0;0;0;8;0;18837;0;0;0;0;9;0;10301;0;0;0;0
22.02.18;20:25:00;1;441;14093;0;2;0;14419;0;0;0;0;3;0;9316;0;0;0;0;4;0;13123;0;0;0;0;5;0;30370;2;0;0;0;0;0;6;0;23111;2;0;0;0;0;0;7;0;18985;0;0;0;0;8;0;18837;0;0;0;0;9;0;10301;0;0;0;0
22.02.18;20:20:00;1;215;14047;0;2;0;14419;0;0;0;0;3;0;9316;0;0;0;0;4;0;13123;0;0;0;0;5;0;30370;2;0;0;0;0;0;6;0;23111;2;0;0;0;0;0;7;0;18985;0;0;0;0;8;0;18837;0;0;0;0;9;0;10301;0;0;0;0
22.02.18;20:15:00;1;670;14029;0;2;0;14419;0;0;0;0;3;0;9316;0;0;0;0;4;0;13123;0;0;0;0;5;0;30370;2;0;0;0;0;0;6;0;23111;2;0;0;0;0;0;7;0;18985;0;0;0;0;8;0;18837;0;0;0;0;9;0;10301;0;0;0;0
22.02.18;20:10:00;1;271;13983;0;2;0;14419;0;0;0;0;3;0;9316;0;0;0;0;4;0;13123;0;0;0;0;5;0;30370;2;0;0;0;0;0;6;0;23111;2;0;0;0;0;0;7;0;18985;0;0;0;0;8;0;18837;0;0;0;0;9;0;10301;0;0;0;0
22.02.18;20:05:00;1;569;13954;0;2;0;14419;0;0;0;0;3;0;9316;0;0;0;0;4;0;13123;0;0;0;0;5;0;30370;2;0;0;0;0;0;6;0;23111;2;0;0;0;0;0;7;0;18985;0;0;0;0;8;0;18837;0;0;0;0;9;0;10301;0;0;0;0
22.02.18;20:00:00;1;753;13901;0;2;0;14419;0;0;0;0;3;0;9316;0;0;0;0;4;0;13123;0;0;0;0;5;0;30370;2;0;0;0;0;0;6;0;23111;2;0;0;0;0;0;7;0;18985;0;0;0;0;8;0;18837;0;0;0;0;9;0;10301;0;0;0;0
22.02.18;19:55:00;1;465;13841;0;2;0;14419;0;0;0;0;3;0;9316;0;0;0;0;4;0;13123;0;0;0;0;5;0;30370;2;0;0;0;0;0;6;0;23111;2;0;0;0;0;0;7;0;18985;0;0;0;0;8;0;18837;0;0;0;0;9;0;10301;0;0;0;0
22.02.18;19:50:00;1;665;13801;0;2;0;14419;0;0;0;0;3;0;9316;0;0;0;0;4;0;13123;0;0;0;0;5;0;30370;2;0;0;0;0;0;6;0;23111;2;0;0;0;0;0;7;0;18985;0;0;0;0;8;0;18837;0;0;0;0;9;0;10301;0;0;0;0
22.02.18;19:45:00;1;686;13733;0;2;0;14419;0;0;0;0;3;0;9316;0;0;0;0;4;0;13123;0;0;0;0;5;0;30370;2;0;0;0;0;0;6;0;23111;2;0;0;0;0;0;7;0;18985;0;0;0;0;8;0;18837;0;0;0;0;9;0;10301;0;0;0;0
22.02.18;19:40:00;1;489;13665;0;2;0;14419;0;0;0;0;3;0;9316;0;0;0;0;4;0;13123;0;0;0;0;5;0;30370;2;0;0;0;0;0;6;0;23111;2;0;0;0;0;0;7;0;18985;0;0;0;0;8;0;18837;0;0;0;0;9;0;10301;0;0;0;0
22.02.18;19:35:00;1;892;13624;0;2;0;14419;0;0;0;0;3;0;9316;0;0;0;0;4;0;13123;0;0;0;0;5;0;30370;2;0;0;0;0;0;6;0;23111;2;0;0;0;0;0;7;0;18985;0;0;0;0;8;0;18837;0;0;0;0;9;0;10301;0;0;0;0
22.02.18;19:30:00;1;663;13557;0;2;0;14419;0;0;0;0;3;0;9316;0;0;0;0;4;0;13123;0;0;0;0;5;0;30370;2;0;0;0;0;0;6;0;23111;2;0;0;0;0;0;7;0;18985;0;0;0;0;8;0;18837;0;0;0;0;9;0;10301;0;0;0;0
22.02.18;19:25:00;1;421;13489;0;2;0;14419;0;0;0;0;3;0;9316;0;0;0;0;4;0;13123;0;0;0;0;5;0;30370;2;0;0;0;0;0;6;0;23111;2;0;0;0;0;0;7;0;18985;0;0;0;0;8;0;18837;0;0;0;0;9;0;10301;0;0;0;0
22.02.18;19:20:00;1;595;13454;0;2;0;14419;0;0;0;0;3;0;9316;0;0;0;0;4;0;13123;0;0;0;0;5;0;30370;2;0;0;0;0;0;6;0;23111;2;0;0;0;0;0;7;0;18985;0;0;0;0;8;0;18837;0;0;0;0;9;0;10301;0;0;0;0
22.02.18;19:15:00;1;672;13394;0;2;0;14419;0;0;0;0;3;0;9316;0;0;0;0;4;0;13123;0;0;0;0;5;0;30370;2;0;0;0;0;0;6;0;23111;2;0;0;0;0;0;7;0;18985;0;0;0;0;8;0;18837;0;0;0;0;9;0;10301;0;0;0;0
22.02.18;19:10:00;1;652;13324;0;2;0;14419;0;0;0;0;3;0;9316;0;0;0;0;4;0;13123;0;0;0;0;5;0;30370;2;0;0;0;0;0;6;0;23111;2;0;0;0;0;0;7;0;18985;0;0;0;0;8;0;18837;0;0;0;0;9;0;10301;0;0;0;0
22.02.18;19:05:00;1;2308;13252;0;2;0;14419;0;0;0;0;3;0;9316;0;0;0;0;4;0;13123;0;0;0;0;5;0;30370;2;0;0;0;0;0;6;0;23111;2;0;0;0;0;0;7;0;18985;0;0;0;0;8;0;18837;0;0;0;0;9;0;10301;0;0;0;0
22.02.18;19:00:00;1;2756;13033;0;2;0;14419;0;0;0;0;3;0;9316;0;0;0;0;4;0;13123;0;0;0;0;5;0;30370;2;0;0;0;0;0;6;0;23111;2;0;0;0;0;0;7;0;18985;0;0;0;0;8;0;18837;0;0;0;0;9;0;10301;0;0;0;0
22.02.18;18:55:00;1;2941;12794;0;2;0;14419;0;0;0;0;3;0;9316;0;0;0;0;4;0;13123;0;0;0;0;5;0;30370;2;0;0;0;0;0;6;0;23111;2;0;0;0;0;0;7;0;18985;0;0;0;0;8;0;18837;0;0;0;0;9;0;10301;0;0;0;0
22.02.18;18:50:00;1;1482;12556;0;2;0;14419;0;0;0;0;3;0;9316;0;0;0;0;4;0;13123;0;0;0;0;5;0;30370;2;0;0;0;0;0;6;0;23111;2;0;0;0;0;0;7;0;18985;0;0;0;0;8;0;18837;0;0;0;0;9;0;10301;0;0;0;0
22.02.18;18:45:00;1;1637;12430;0;2;0;14419;0;0;0;0;3;0;9316;0;0;0;0;4;0;13123;0;0;0;0;5;0;30370;2;0;0;0;0;0;6;0;23111;2;0;0;0;0;0;7;0;18985;0;0;0;0;8;0;18837;0;0;0;0;9;0;10301;0;0;0;0
22.02.18;18:40:00;1;1025;12299;0;2;0;14419;0;0;0;0;3;0;9316;0;0;0;0;4;0;13123;0;0;0;0;5;0;30370;2;0;0;0;0;0;6;0;23111;2;0;0;0;0;0;7;0;18985;0;0;0;0;8;0;18837;0;0;0;0;9;0;10301;0;0;0;0
22.02.18;18:35:00;1;1211;12212;0;2;0;14419;0;0;0;0;3;0;9316;0;0;0;0;4;0;13123;0;0;0;0;5;0;30370;2;0;0;0;0;0;6;0;23111;2;0;0;0;0;0;7;0;18985;0;0;0;0;8;0;18837;0;0;0;0;9;0;10301;0;0;0;0
22.02.18;18:30:00;1;3707;12079;0;2;0;14419;0;0;0;0;3;0;9316;0;0;0;0;4;0;13123;0;0;0;0;5;0;30370;2;0;0;0;0;0;6;0;23111;2;0;0;0;0;0;7;0;18985;0;0;0;0;8;0;18837;0;0;0;0;9;0;10301;0;0;0;0
22.02.18;18:25:00;1;1887;11743;0;2;0;14419;0;0;0;0;3;0;9316;0;0;0;0;4;0;13123;0;0;0;0;5;0;30370;2;0;0;0;0;0;6;0;23111;2;0;0;0;0;0;7;0;18985;0;0;0;0;8;0;18837;0;0;0;0;9;0;10301;0;0;0;0
22.02.18;18:20:00;1;2209;11596;0;2;0;14419;0;0;0;0;3;0;9316;0;0;0;0;4;0;13123;0;0;0;0;5;0;30370;2;0;0;0;0;0;6;0;23111;2;0;0;0;0;0;7;0;18985;0;0;0;0;8;0;18837;0;0;0;0;9;0;10301;0;0;0;0
22.02.18;18:15:00;1;1787;11389;0;2;0;14419;0;0;0;0;3;0;9316;0;0;0;0;4;0;13123;0;0;0;0;5;0;30370;2;0;0;0;0;0;6;0;23111;2;0;0;0;0;0;7;0;18985;0;0;0;0;8;0;18837;0;0;0;0;9;0;10301;0;0;0;0
22.02.18;18:10:00;1;2445;11238;0;2;0;14419;0;0;0;0;3;0;9316;0;0;0;0;4;0;13123;0;0;0;0;5;0;30370;2;0;0;0;0;0;6;0;23111;2;0;0;0;0;0;7;0;18985;0;0;0;0;8;0;18837;0;0;0;0;9;0;10301;0;0;0;0
22.02.18;18:05:00;1;2776;10978;0;2;0;14419;0;0;0;0;3;0;9316;0;0;0;0;4;0;13123;0;0;0;0;5;0;30370;2;0;0;0;0;0;6;0;23111;2;0;0;0;0;0;7;0;18985;0;0;0;0;8;0;18837;0;0;0;0;9;0;10301;0;0;0;0
22.02.18;18:00:00;1;1071;10788;0;2;0;14419;0;0;0;0;3;0;9316;0;0;35;1;4;0;13123;0;0;0;0;5;0;30370;2;0;0;0;0;0;6;0;23111;2;0;0;0;0;0;7;0;18985;0;0;0;0;8;0;18837;0;0;0;0;9;0;10301;0;0;0;0
22.02.18;17:55:00;1;1037;10701;0;2;0;14419;0;0;229;7;3;0;9316;6;0;293;13;4;0;13123;0;0;0;0;5;0;30370;2;0;0;0;0;0;6;0;23111;2;0;0;0;0;0;7;0;18985;0;0;0;0;8;0;18837;0;0;0;0;9;0;10301;0;0;0;0
22.02.18;17:50:00;1;1057;10614;0;2;0;14419;6;0;303;9;3;0;9316;6;0;342;13;4;0;13123;0;0;19;2;5;0;30370;2;89;87;0;0;2;6;0;23111;2;0;0;0;0;0;7;0;18985;0;0;0;0;8;0;18837;0;0;0;0;9;0;10301;0;0;0;0
22.02.18;17:45:00;1;1068;10527;0;2;0;14419;6;0;335;10;3;0;9316;6;0;407;13;4;0;13123;2;0;85;8;5;0;30370;26;0;1;292;295;20;6;0;23111;2;0;6;143;227;12;7;0;18985;0;0;0;0;8;0;18837;0;0;0;0;9;0;10301;0;0;0;0
22.02.18;17:40:00;1;2413;10439;0;2;0;14419;6;0;368;10;3;0;9316;6;1;443;13;4;0;13123;1;0;125;8;5;0;30370;26;0;0;400;448;21;6;0;23111;23;1;8;371;338;19;7;0;18985;0;0;136;6;8;0;18837;0;0;179;8;9;0;10301;0;0;236;7
22.02.18;17:35:00;1;3081;10227;0;2;0;14419;6;0;396;10;3;0;9316;6;0;500;14;4;0;13123;1;0;181;9;5;8;30370;1;0;0;415;647;21;6;0;23111;23;0;11;428;341;19;7;0;18985;6;0;349;13;8;0;18837;6;0;355;12;9;0;10301;6;0;362;9
22.02.18;17:30:00;1;3389;9970;0;2;1;14419;6;11;391;11;3;2;9316;3;7;481;14;4;0;13123;1;0;218;9;5;23;30370;1;3;8;419;665;21;6;0;23111;23;0;10;376;593;20;7;0;18985;6;0;404;13;8;0;18837;6;0;415;13;9;0;10301;6;2;423;9
22.02.18;17:25:00;1;3357;9672;0;2;2;14419;6;8;409;11;3;2;9316;6;6;508;14;4;0;13123;3;0;213;10;5;76;30367;4;17;17;380;600;22;6;41;23111;1;0;41;495;476;21;7;0;18985;6;0;460;13;8;0;18837;6;2;444;13;9;0;10301;6;2;484;10
22.02.18;17:20:00;1;4053;9385;0;2;3;14419;6;9;414;11;3;0;9316;6;5;524;14;4;0;13123;3;0;231;10;5;103;30360;4;33;30;380;600;23;6;66;23107;4;2;50;464;445;21;7;3;18985;4;7;442;14;8;1;18837;6;1;465;13;9;1;10301;6;3;494;10
22.02.18;17:15:00;1;3477;9058;0;2;31;14418;6;58;376;12;3;2;9316;6;10;533;14;4;3;13123;3;4;200;10;5;134;30352;4;49;46;380;600;23;6;87;23102;4;14;67;464;445;21;7;4;18984;3;9;479;14;8;6;18837;3;14;454;14;9;0;10301;6;0;558;10
22.02.18;17:10:00;1;4319;8757;0;2;56;14416;4;91;374;12;3;8;9315;6;19;519;15;4;13;13122;3;14;199;11;5;171;30340;4;69;59;380;600;23;6;111;23094;4;17;64;464;445;22;7;19;18984;6;32;431;15;8;13;18836;6;21;464;14;9;4;10301;4;12;521;10
22.02.18;17:05:00;1;4342;8425;0;2;80;14411;4;113;359;12;3;0;9315;6;0;578;15;4;26;13121;3;27;198;11;5;207;30326;4;97;81;380;600;23;6;136;23085;4;37;87;464;445;22;7;38;18982;4;87;418;15;8;50;18835;4;86;420;14;9;6;10300;3;10;554;11
22.02.18;17:00:00;1;4856;8035;0;2;112;14405;4;148;378;13;3;61;9315;4;103;477;15;4;59;13119;3;61;198;11;5;267;30309;4;122;107;380;600;23;6;170;23073;4;61;101;464;445;22;7;83;18979;4;116;399;15;8;78;18831;4;120;446;15;9;16;10300;6;24;541;11
22.02.18;16:55:00;1;4986;7608;0;2;140;14396;4;179;392;13;3;81;9310;4;121;494;16;4;89;13114;3;93;205;11;5;322;30286;4;159;128;380;600;23;6;215;23059;4;75;125;464;445;22;7;110;18972;4;148;409;15;8;118;18824;4;156;442;15;9;39;10299;6;56;523;11
22.02.18;16:50:00;1;4052;7106;0;2;152;14384;4;192;386;13;3;86;9303;4;129;508;16;4;102;13107;5;106;227;12;5;352;30259;4;173;150;380;600;23;6;234;23041;4;81;136;464;445;22;7;128;18963;4;170;453;15;8;133;18814;4;171;459;15;9;70;10296;4;101;487;12
22.02.18;16:45:00;1;3013;6780;0;2;156;14371;4;193;385;14;3;88;9296;4;130;503;16;4;104;13098;5;108;227;12;5;362;30229;4;177;151;380;600;23;6;233;23021;4;103;166;464;445;22;7;130;18953;4;170;462;16;8;138;18803;4;170;413;15;9;71;10290;4;102;503;12
22.02.18;16:40:00;1;2676;6525;0;2;160;14358;4;199;384;14;3;91;9288;4;132;512;16;4;106;13090;5;111;228;12;5;358;30199;4;177;152;380;600;24;6;236;23002;4;85;138;464;445;22;7;137;18942;4;172;440;16;8;136;18792;4;174;408;16;9;72;10284;4;103;490;12
22.02.18;16:35:00;1;1756;6300;0;2;203;14345;4;242;394;14;3;119;9281;4;159;520;17;4;145;13081;5;151;231;13;5;428;30169;4;204;179;409;620;24;6;284;22982;4;110;183;464;520;22;7;166;18930;4;204;418;16;8;169;18780;4;211;446;16;9;89;10278;4;122;491;13
22.02.18;16:30:00;1;2209;6192;0;2;281;14328;4;324;396;15;3;170;9271;4;212;491;17;4;214;13069;5;222;238;13;5;558;30132;4;278;230;414;636;24;6;405;22957;4;157;235;521;566;22;7;247;18916;4;290;457;17;8;251;18766;4;289;475;16;9;133;10270;4;166;527;13
22.02.18;16:25:00;1;2336;5948;0;2;355;14305;4;405;412;16;3;220;9257;4;264;497;17;4;287;13051;5;299;240;14;5;712;30085;4;356;298;424;673;24;6;527;22923;4;230;290;582;575;22;7;329;18896;4;371;483;17;8;332;18746;4;378;466;16;9;180;10260;4;216;526;13
22.02.18;16:20:00;1;749;5783;0;2;461;14275;4;511;412;16;3;285;9238;4;337;518;18;4;374;13027;5;390;243;14;5;894;30024;4;442;377;425;691;24;6;660;22877;4;294;353;598;580;22;7;438;18868;4;491;470;17;8;448;18717;4;490;469;17;9;238;10244;4;278;534;14
22.02.18;16:15:00;1;980;5720;0;2;583;14237;4;637;414;17;3;362;9215;4;414;525;18;4;482;12996;5;502;246;14;5;1115;29948;4;561;466;435;688;25;6;828;22821;4;375;433;604;585;23;7;582;18832;4;630;490;17;8;578;18680;4;636;489;17;9;308;10225;4;353;543;14
22.02.18;16:10:00;1;743;5629;0;2;688;14188;4;747;412;17;3;430;9184;4;487;529;18;4;578;12956;5;602;247;15;5;1329;29854;4;664;560;439;703;25;6;992;22750;4;481;538;606;595;23;7;723;18783;4;778;495;18;8;721;18632;4;773;494;17;9;385;10199;4;433;533;15
22.02.18;16:05:00;1;772;5567;0;2;772;14131;4;837;419;18;3;488;9149;4;545;528;19;4;652;12908;5;679;246;15;5;1458;29744;4;748;619;437;712;25;6;1093;22667;4;530;574;611;592;23;7;830;18723;4;883;484;18;8;824;18572;4;879;498;18;9;438;10167;4;488;545;15
22.02.18;16:00:00;1;819;5501;0;2;973;14067;4;1044;425;18;3;606;9108;4;671;554;19;4;799;12854;5;832;253;16;5;1741;29621;4;900;747;444;722;25;6;1306;22575;4;635;674;618;594;23;7;1108;18655;4;1170;494;18;8;1089;18504;4;1156;501;18;9;578;10130;4;633;547;16
22.02.18;15:55:00;1;1149;5433;0;2;1015;13986;4;1085;427;19;3;632;9058;4;697;554;19;4;844;12787;5;879;254;16;5;1823;29475;4;950;792;440;723;25;6;1389;22465;4;685;729;618;596;23;7;1199;18563;4;1273;491;18;8;1190;18414;4;1259;485;18;9;642;10083;4;703;554;16
22.02.18;15:50:00;1;767;5348;0;2;982;13901;4;1055;421;19;3;625;9005;4;689;546;19;4;822;12717;5;856;250;16;5;1820;29323;4;934;781;437;722;26;6;1373;22350;4;676;718;614;591;23;7;1187;18463;4;1247;494;19;8;1162;18315;4;1231;485;18;9;625;10029;4;686;549;16
22.02.18;15:45:00;1;1422;5283;0;2;1121;13820;4;1197;427;20;3;705;8953;4;773;551;20;4;932;12649;5;971;252;17;5;2017;29171;4;1058;870;444;726;26;6;1521;22236;4;736;789;614;596;23;7;1309;18365;4;1388;502;19;8;1294;18218;4;1369;505;19;9;692;9977;4;755;557;17
22.02.18;15:40:00;1;1771;5164;0;2;1255;13726;4;1337;426;20;3;783;8894;4;856;551;20;4;1035;12571;5;1079;255;17;5;2233;29000;4;1169;972;442;709;26;6;1690;22107;4;849;884;613;597;23;7;1490;18255;4;1573;503;19;8;1469;18110;4;1560;502;19;9;790;9919;4;856;550;17
22.02.18;15:35:00;1;517;5010;0;2;1506;13622;4;1597;430;21;3;890;8829;4;968;571;20;4;1208;12485;5;1259;256;18;5;2605;28812;4;1384;1142;443;725;26;6;1981;21964;4;996;1028;622;598;24;7;1861;18130;4;1952;508;20;8;1838;17988;4;1928;506;19;9;988;9854;4;1063;557;17
22.02.18;15:30:00;1;328;4968;0;2;1369;13498;4;1456;426;21;3;856;8755;4;930;550;21;4;1149;12385;5;1196;251;18;5;2453;28596;4;1296;1068;442;719;26;6;1855;21800;4;914;947;618;595;24;7;1680;17977;4;1776;510;20;8;1671;17836;4;1755;503;20;9;889;9772;4;971;552;18
22.02.18;15:25:00;1;233;4940;0;2;1415;13383;4;1505;428;22;3;887;8684;4;964;559;21;4;1173;12289;5;1222;255;18;5;2549;28392;4;1333;1104;447;721;27;6;1930;21644;4;950;990;621;598;24;7;1786;17837;4;1876;505;20;8;1760;17696;4;1854;507;20;9;951;9698;4;1025;554;18
22.02.18;15:20:00;1;946;4921;0;2;1255;13266;4;1341;427;22;3;807;8610;4;879;538;21;4;1077;12191;5;1122;250;19;5;2348;28183;4;1236;1014;448;727;27;6;1780;21485;4;880;909;623;595;24;7;1548;17689;4;1629;502;21;8;1534;17550;4;1621;506;20;9;826;9619;4;898;558;18
22.02.18;15:15:00;1;216;4874;0;2;1274;13161;4;1359;427;22;3;815;8543;4;885;540;21;4;1099;12101;5;1145;252;19;5;2404;27988;4;1253;1038;450;717;27;6;1810;21337;4;878;919;620;597;24;7;1541;17559;4;1631;500;21;8;1533;17421;4;1620;503;21;9;824;9549;4;895;553;18
22.02.18;15:10:00;1;213;4855;0;2;1326;13055;4;1412;423;23;3;846;8475;4;921;543;22;4;1151;12010;5;1200;251;20;5;2486;27788;4;1315;1080;445;722;28;6;1884;21185;4;943;977;622;596;25;7;1597;17430;4;1686;499;22;8;1583;17294;4;1665;499;21;9;850;9481;4;924;554;19
22.02.18;15:05:00;1;215;4838;0;2;1433;12945;4;1527;422;24;3;920;8405;4;996;538;22;4;1242;11914;5;1294;247;20;5;2639;27581;4;1407;1150;447;724;28;6;2019;21027;4;1016;1041;620;597;25;7;1741;17298;4;1833;506;22;8;1720;17162;4;1812;495;22;9;927;9410;4;1000;552;19
22.02.18;15:00:00;1;260;4820;0;2;1585;12826;4;1685;420;26;3;1013;8329;4;1096;542;23;4;1349;11811;5;1405;249;21;5;2860;27359;4;1520;1247;448;722;28;6;2163;20859;4;1076;1113;621;598;25;7;1920;17153;4;2025;498;23;8;1889;17020;4;1988;498;22;9;1014;9333;4;1092;551;20
22.02.18;14:55:00;1;220;4798;0;2;1826;12695;4;1933;422;27;3;1152;8245;4;1238;545;23;4;1575;11699;5;1640;251;22;5;3338;27117;4;1784;1464;444;728;29;6;2530;20676;4;1275;1296;622;599;25;7;2459;16994;4;2592;502;23;8;2418;16863;4;2543;498;23;9;1310;9249;4;1401;559;21
22.02.18;14:50:00;1;750;4780;0;2;1882;12543;4;1989;417;28;3;1170;8148;4;1256;544;24;4;1616;11568;5;1683;247;23;5;3427;26839;4;1836;1508;443;715;29;6;2619;20464;4;1314;1338;615;598;25;7;2589;16788;4;2718;503;23;8;2559;16660;4;2686;495;23;9;1389;9139;4;1481;552;22
22.02.18;14:45:00;1;265;4731;0;2;3061;12385;4;3221;417;29;3;1924;8051;4;2038;522;25;4;2529;11433;5;2634;245;24;5;5158;26553;4;2819;2292;442;715;29;6;3909;20245;4;1992;1994;615;601;25;7;3786;16573;4;3975;500;24;8;3725;16447;4;3898;492;23;9;2009;9024;4;2131;544;22
22.02.18;14:40:00;1;267;4708;0;2;3513;12139;4;3694;413;30;3;2265;7897;4;2394;532;25;4;2945;11231;5;3068;245;24;5;6023;26114;4;3299;2685;443;716;29;6;4601;19913;4;2347;2333;620;600;25;7;4303;16273;4;4506;492;23;8;4162;16153;4;4355;499;23;9;2254;8865;4;2390;548;23
22.02.18;14:35:00;1;222;4686;0;2;3670;11847;4;3860;414;29;3;2393;7709;4;2528;534;25;4;3157;10986;5;3289;247;23;5;6422;25610;4;3509;2873;444;711;29;6;4938;19528;4;2519;2506;620;601;25;7;4750;15913;4;4972;487;23;8;4719;15804;4;4944;495;23;9;2579;8676;4;2726;542;22
22.02.18;14:30:00;1;236;4667;0;2;3489;11541;4;3669;417;29;3;2226;7509;4;2355;531;24;4;2990;10723;5;3114;245;23;5;6146;25079;4;3370;2749;440;714;28;6;4749;19119;4;2415;2408;622;595;25;7;4267;15515;4;4469;497;23;8;4048;15409;4;4245;498;22;9;2158;8460;4;2284;548;22